Albert Lea, MN

4:26 PM CDT on March 27, 2017 (GMT -0500)
Albert Lea Municipal

Weather History for KAEL - April, 2014

Change the Weather History Date:

Sunday, April 27, 2014

  Actual Average Record
Temperature  
Mean Temperature 46 °F -  
Max Temperature 50 °F 60 °F 75 °F (2001)
Min Temperature 42 °F 39 °F 28 °F (2008)
Degree Days  
Heating Degree Days 19    
Moisture  
Dew Point 40 °F    
Average Humidity 83    
Maximum Humidity 100    
Minimum Humidity 57    
Precipitation  
Precipitation 0.69 in - - ()
Sea Level Pressure  
Sea Level Pressure 29.67 in    
Wind  
Wind Speed 22 mph (ESE)    
Max Wind Speed 31 mph    
Max Gust Speed 45 mph    
Visibility 9 miles    
Events Rain , Thunderstorm    
Averages and records for this station are not official NWS values.
T = Trace of Precipitation, MM = Missing Value Source: NWS Daily Summary

Daily Weather History Graph

Daily Weather History Graph

Search for Another Location

Airport or City:

Trip Planner

Search our weather history database for the weather conditions in past years. The results will help you decide how hot, cold, wet, or windy it might be!

Date:

Astronomy

Apr. 27, 2014 Rise Set
Actual Time 6:11 AM CDT 8:11 PM CDT
Civil Twilight 5:40 AM CDT 8:42 PM CDT
Nautical Twilight 5:02 AM CDT 9:20 PM CDT
Astronomical Twilight 4:21 AM CDT 10:02 PM CDT
Moon 5:16 AM CDT 6:43 PM CDT
Length of Visible Light 15h 01m
Length of Day
13h 59m
Waning Crescent, 3% of the Moon is Illuminated
Apr 27
Waning Crescent
Apr 29
New
May 6
First Quarter
May 14
Full
May 21
Last Quarter

Hourly Weather History & Observations

Time (CDT) Temp. Windchill Dew Point Humidity Pressure Visibility Wind Dir Wind Speed Gust Speed Precip Events Conditions
12:09 AM 46.4 °F 39.0 °F 33.8 °F 62% 29.84 in 10.0 mi East 19.6 mph 29.9 mph N/A   Overcast
12:29 AM 46.4 °F 37.9 °F 33.8 °F 62% 29.84 in 10.0 mi ESE 25.3 mph 35.7 mph N/A   Overcast
12:48 AM 46.4 °F 37.9 °F 32.0 °F 57% 29.84 in 10.0 mi ESE 25.3 mph 38.0 mph N/A   Overcast
1:09 AM 44.6 °F 36.4 °F 33.8 °F 66% 29.84 in 10.0 mi ESE 20.7 mph 33.4 mph N/A Thunderstorm Overcast
1:29 AM 44.6 °F 35.9 °F 33.8 °F 66% 29.83 in 10.0 mi ESE 23.0 mph 32.2 mph N/A   Overcast
1:48 AM 44.6 °F 36.4 °F 33.8 °F 66% 29.81 in 10.0 mi ESE 20.7 mph 33.4 mph N/A Thunderstorm Overcast
2:09 AM 44.6 °F 36.4 °F 32.0 °F 61% 29.80 in 10.0 mi ESE 20.7 mph 33.4 mph N/A   Overcast
2:29 AM 44.6 °F 36.6 °F 32.0 °F 61% 29.79 in 10.0 mi ESE 19.6 mph 33.4 mph N/A   Overcast
2:48 AM 44.6 °F 36.1 °F 32.0 °F 61% 29.79 in 10.0 mi ESE 21.9 mph 31.1 mph N/A   Overcast
3:09 AM 44.6 °F 35.5 °F 30.2 °F 57% 29.78 in 10.0 mi ESE 25.3 mph 34.5 mph N/A   Overcast
3:28 AM 44.6 °F 36.1 °F 30.2 °F 57% 29.76 in 10.0 mi ESE 21.9 mph 32.2 mph N/A   Overcast
3:48 AM 44.6 °F 36.1 °F 30.2 °F 57% 29.76 in 10.0 mi ESE 21.9 mph 29.9 mph N/A   Overcast
4:09 AM 44.6 °F 36.6 °F 30.2 °F 57% 29.74 in 10.0 mi ESE 19.6 mph 38.0 mph N/A   Mostly Cloudy
4:28 AM 44.6 °F 35.7 °F 30.2 °F 57% 29.73 in 10.0 mi ESE 24.2 mph 33.4 mph N/A Thunderstorm Mostly Cloudy
4:48 AM 42.8 °F 32.9 °F 30.2 °F 61% 29.72 in 10.0 mi ESE 26.5 mph 35.7 mph N/A   Overcast
5:09 AM 42.8 °F 34.0 °F 32.0 °F 66% 29.72 in 10.0 mi ESE 20.7 mph 36.8 mph N/A   Overcast
5:28 AM 42.8 °F 33.5 °F 33.8 °F 70% 29.71 in 10.0 mi ESE 23.0 mph 34.5 mph N/A   Overcast
5:48 AM 42.8 °F 34.0 °F 33.8 °F 70% 29.71 in 10.0 mi ESE 20.7 mph 31.1 mph N/A Thunderstorm Overcast
6:09 AM 42.8 °F 33.3 °F 35.6 °F 76% 29.72 in 10.0 mi ESE 24.2 mph 33.4 mph N/A   Overcast
6:28 AM 42.8 °F 34.0 °F 35.6 °F 76% 29.71 in 10.0 mi ESE 20.7 mph 31.1 mph N/A   Overcast
6:48 AM 42.8 °F 33.1 °F 35.6 °F 76% 29.70 in 10.0 mi ESE 25.3 mph 33.4 mph N/A Thunderstorm Thunderstorm
7:09 AM 42.8 °F 34.0 °F 37.4 °F 81% 29.70 in 10.0 mi ESE 20.7 mph 28.8 mph N/A   Overcast
7:28 AM 42.8 °F 33.3 °F 37.4 °F 81% 29.70 in 10.0 mi ESE 24.2 mph 29.9 mph N/A Thunderstorm Overcast
7:48 AM 42.8 °F 34.8 °F 37.4 °F 81% 29.71 in 10.0 mi SE 17.3 mph 21.9 mph N/A Thunderstorm Thunderstorm
8:09 AM 42.8 °F 34.8 °F 39.2 °F 87% 29.70 in 7.0 mi ESE 17.3 mph 25.3 mph N/A Rain , Thunderstorm Thunderstorms and Rain
8:28 AM 42.8 °F 34.0 °F 39.2 °F 87% 29.68 in 10.0 mi ESE 20.7 mph 29.9 mph N/A Rain , Thunderstorm Light Thunderstorms and Rain
8:49 AM 42.8 °F 33.8 °F 42.8 °F 100% 29.68 in 10.0 mi ESE 21.9 mph 27.6 mph N/A Thunderstorm Mostly Cloudy
9:09 AM 42.8 °F 34.0 °F 42.8 °F 100% 29.68 in 10.0 mi ESE 20.7 mph 28.8 mph N/A   Overcast
9:28 AM 44.6 °F 35.9 °F 42.8 °F 93% 29.67 in 10.0 mi ESE 23.0 mph 31.1 mph N/A   Overcast
9:49 AM 44.6 °F 36.4 °F 41.0 °F 87% 29.68 in 10.0 mi ESE 20.7 mph 31.1 mph N/A Thunderstorm Overcast
10:09 AM 44.6 °F 35.7 °F 42.8 °F 93% 29.67 in 4.0 mi ESE 24.2 mph 31.1 mph 0.01 in Rain , Thunderstorm Thunderstorms and Rain
11:28 AM 44.6 °F 36.4 °F 44.6 °F 100% 29.66 in 10.0 mi SE 20.7 mph 31.1 mph 0.11 in Rain , Thunderstorm Light Thunderstorms and Rain
11:48 AM 44.6 °F 36.4 °F 44.6 °F 100% 29.67 in 10.0 mi ESE 20.7 mph 35.7 mph N/A Rain , Thunderstorm Light Thunderstorms and Rain
12:09 PM 44.6 °F 37.8 °F 44.6 °F 100% 29.68 in 10.0 mi ESE 15.0 mph 20.7 mph N/A   Mostly Cloudy
12:28 PM 46.4 °F 38.7 °F 44.6 °F 93% 29.67 in 10.0 mi ESE 20.7 mph 26.5 mph N/A Thunderstorm Mostly Cloudy
12:49 PM 46.4 °F 37.9 °F 44.6 °F 93% 29.66 in 10.0 mi ESE 25.3 mph 34.5 mph N/A Thunderstorm Thunderstorm
1:08 PM 46.4 °F 37.5 °F 46.4 °F 100% 29.66 in 10.0 mi ESE 27.6 mph 35.7 mph N/A   Scattered Clouds
1:28 PM 48.2 °F - 46.4 °F 93% 29.64 in 10.0 mi ESE 23.0 mph 38.0 mph N/A   Scattered Clouds
1:49 PM 48.2 °F - 42.8 °F 82% 29.64 in 10.0 mi East 29.9 mph 38.0 mph N/A   Mostly Cloudy
2:08 PM 50.0 °F - 44.6 °F 82% 29.61 in 10.0 mi East 25.3 mph 38.0 mph N/A   Overcast
2:29 PM 50.0 °F - 42.8 °F 76% 29.61 in 10.0 mi East 23.0 mph 36.8 mph N/A   Overcast
3:09 PM 48.2 °F - 42.8 °F 82% 29.58 in 10.0 mi East 26.5 mph 39.1 mph N/A Thunderstorm Overcast
3:22 PM 48.2 °F - 42.8 °F 82% 29.56 in 10.0 mi East 25.3 mph 35.7 mph N/A Thunderstorm Thunderstorm
3:38 PM 46.4 °F 37.5 °F 42.8 °F 87% 29.57 in 7.0 mi East 27.6 mph 38.0 mph 0.01 in Rain , Thunderstorm Rain
4:11 PM 46.4 °F 42.9 °F 42.8 °F 87% 29.67 in 4.0 mi ESE 6.9 mph 18.4 mph 0.11 in Rain , Thunderstorm Heavy Thunderstorms and Rain
4:26 PM 44.6 °F 37.8 °F 42.8 °F 93% 29.65 in 5.0 mi ESE 15.0 mph 25.3 mph 0.23 in Rain , Thunderstorm Light Thunderstorms and Rain
4:49 PM 44.6 °F 36.1 °F 44.6 °F 100% 29.67 in 1.8 mi ESE 21.9 mph 26.5 mph 0.05 in Rain , Thunderstorm Heavy Thunderstorms and Rain
5:09 PM 44.6 °F 36.1 °F 44.6 °F 100% 29.65 in 7.0 mi ESE 21.9 mph 28.8 mph 0.24 in Rain , Thunderstorm Heavy Thunderstorms and Rain
5:28 PM 44.6 °F 36.9 °F 44.6 °F 100% 29.65 in 7.0 mi East 18.4 mph 26.5 mph 0.28 in Rain , Thunderstorm Thunderstorms and Rain
5:45 PM 44.6 °F 36.6 °F 44.6 °F 100% 29.64 in 10.0 mi East 19.6 mph 27.6 mph 0.29 in Rain , Thunderstorm Light Thunderstorms and Rain
6:09 PM 44.6 °F 36.1 °F 44.6 °F 100% 29.57 in 10.0 mi East 21.9 mph 33.4 mph 0.03 in Rain , Thunderstorm Rain
6:29 PM 44.6 °F 34.6 °F 44.6 °F 100% 29.49 in 5.0 mi ENE 31.1 mph 39.1 mph 0.04 in Rain Light Rain
6:48 PM 44.6 °F 35.3 °F 44.6 °F 100% 29.55 in 10.0 mi East 26.5 mph 38.0 mph N/A   Scattered Clouds
7:09 PM 44.6 °F 35.1 °F 44.6 °F 100% 29.54 in 10.0 mi East 27.6 mph 41.4 mph N/A   Clear
7:29 PM 44.6 °F 35.5 °F 42.8 °F 93% 29.54 in 10.0 mi East 25.3 mph 44.9 mph N/A   Clear
7:49 PM 44.6 °F 34.9 °F 42.8 °F 93% 29.57 in 10.0 mi ESE 28.8 mph 35.7 mph N/A   Clear
8:08 PM 44.6 °F 35.7 °F 42.8 °F 93% 29.58 in 10.0 mi ESE 24.2 mph 33.4 mph N/A   Clear
8:29 PM 44.6 °F 36.4 °F 42.8 °F 93% 29.59 in 10.0 mi ESE 20.7 mph 32.2 mph N/A   Scattered Clouds
8:48 PM 44.6 °F 37.4 °F 42.8 °F 93% 29.60 in 10.0 mi ESE 16.1 mph 24.2 mph N/A   Mostly Cloudy
9:08 PM 46.4 °F 39.2 °F 42.8 °F 87% 29.61 in 10.0 mi ESE 18.4 mph 26.5 mph N/A   Mostly Cloudy
9:29 PM 46.4 °F 40.4 °F 44.6 °F 93% 29.61 in 10.0 mi ESE 13.8 mph 23.0 mph N/A   Mostly Cloudy
9:48 PM 46.4 °F 40.1 °F 44.6 °F 93% 29.60 in 10.0 mi ESE 15.0 mph 20.7 mph N/A   Scattered Clouds
10:08 PM 46.4 °F 40.1 °F 44.6 °F 93% 29.60 in 10.0 mi East 15.0 mph 20.7 mph N/A   Mostly Cloudy
10:29 PM 48.2 °F - 44.6 °F 87% 29.58 in 10.0 mi East 19.6 mph 25.3 mph N/A   Overcast
10:48 PM 48.2 °F - 44.6 °F 87% 29.58 in 10.0 mi ESE 16.1 mph 29.9 mph N/A   Overcast
11:09 PM 46.4 °F 39.2 °F 44.6 °F 93% 29.58 in 10.0 mi ESE 18.4 mph 23.0 mph N/A   Overcast
11:29 PM 46.4 °F 39.2 °F 44.6 °F 93% 29.60 in 10.0 mi ESE 18.4 mph 23.0 mph N/A   Overcast
11:48 PM 46.4 °F 39.2 °F 44.6 °F 93% 29.60 in 10.0 mi ESE 18.4 mph 29.9 mph N/A   Overcast